Location: Potomac Astrometric Observatory
(39.0475°N, 77.2064°W)
Time: 16:12:32
(UTC-05:00)

OTV 5 (USA 277) - Visible Passes

Search period start: 09 December 2018 00:00
Search period end: 19 December 2018 00:00
Orbit: 341 x 347 km, 54.5° (Epoch: 03 December)

Date Brightness Start Highest point End Pass type
(mag) Time Alt. Az. Time Alt. Az. Time Alt. Az.
10 Dec ? 06:15:35 10° N 06:16:48 12° NNE 06:18:02 10° NE visible
11 Dec ? 06:38:14 10° NNW 06:40:46 27° NE 06:43:18 10° E visible
12 Dec ? 05:29:08 12° NNE 05:29:14 12° NNE 05:30:21 10° NE visible
13 Dec ? 05:52:08 21° N 05:53:11 26° NE 05:55:42 10° E visible
14 Dec ? 06:15:12 22° NW 06:16:56 87° SW 06:19:47 10° SE visible
15 Dec ? 05:06:54 18° ENE 05:06:54 18° ENE 05:08:05 10° E visible
15 Dec ? 06:38:21 11° W 06:40:25 21° SW 06:42:40 10° S visible
16 Dec ? 05:30:07 45° SE 05:30:07 45° SE 05:32:13 10° SE visible
17 Dec ? 05:53:25 21° SSW 05:53:25 21° SSW 05:55:09 10° S visible
